Weather History for Luhansk, Ukraine

Change the Weather History Date:

Saturday, July 13, 2013

  Actual Average Record
Temperature  
Mean Temperature 76 °F -  
Max Temperature 91 °F - - ()
Min Temperature 62 °F - - ()
Cooling Degree Days 12    
Growing Degree Days 26 (Base 50)    
Moisture  
Dew Point 49 °F    
Average Humidity 37    
Maximum Humidity 68    
Minimum Humidity 20    
Precipitation  
Precipitation 0.00 in - - ()
Sea Level Pressure  
Sea Level Pressure 29.86 in    
Wind  
Wind Speed 4 mph ()    
Max Wind Speed 13 mph    
Max Gust Speed -    
Visibility 6.2 miles    
Events Thunderstorm    
T = Trace of Precipitation, MM = Missing Value Source: Averaged Metar Reports

Daily Weather History Graph

Daily Weather History Graph

Search for Another Location

Airport:

Trip Planner

Search our weather history database for the weather conditions in past years. The results will help you decide how hot, cold, wet, or windy it might be!

Date:

Astronomy

Jul. 13, 2013 Rise Set
Actual Time 4:34 AM EEST 8:21 PM EEST
Civil Twilight 3:54 AM EEST 9:01 PM EEST
Nautical Twilight 2:59 AM EEST 9:55 PM EEST
Astronomical Twilight 1:38 AM EEST 11:15 PM EEST
Moon 9:57 AM EEST (7/13) 10:20 PM EEST (7/13)
Length of Visible Light 17h 06m
Length of Day
15h 46m
Waxing Crescent, 23% of the Moon is Illuminated
Jul 13
Waxing Crescent
Jul 16
First Quarter
Jul 22
Full
Jul 29
Last Quarter
Aug 7
New

Hourly Weather History & Observations

Time (EEST) Temp. Dew Point Humidity Pressure Visibility Wind Dir Wind Speed Gust Speed Precip Events Conditions
12:00 AM 73.4 °F 48.2 °F 41% 29.86 in - East 4.5 mph - N/A   Clear
12:30 AM 69.8 °F 50.0 °F 49% 29.86 in - East 6.7 mph - N/A   Clear
1:00 AM 69.8 °F 48.2 °F 46% 29.86 in - East 4.5 mph - N/A   Clear
1:30 AM 69.8 °F 48.2 °F 46% 29.86 in - ENE 4.5 mph - N/A   Clear
2:00 AM 68.0 °F 48.2 °F 49% 29.89 in - ENE 2.2 mph - N/A   Clear
2:30 AM 66.2 °F 51.8 °F 60% 29.89 in - Calm Calm - N/A   Clear
3:00 AM 68.0 °F 48.2 °F 49% 29.89 in - East 4.5 mph - N/A   Clear
3:30 AM 66.2 °F 48.2 °F 52% 29.89 in - Calm Calm - N/A   Clear
4:00 AM 64.4 °F 51.8 °F 64% 29.89 in - Calm Calm - N/A   Clear
4:30 AM 64.4 °F 50.0 °F 59% 29.89 in - Calm Calm - N/A   Clear
5:00 AM 62.6 °F 50.0 °F 63% 29.89 in - Calm Calm - N/A   Clear
5:30 AM 64.4 °F 50.0 °F 59% 29.89 in - NE 4.5 mph - N/A   Clear
6:00 AM 66.2 °F 55.4 °F 68% 29.89 in - Variable 4.5 mph - N/A   Clear
6:30 AM 69.8 °F 51.8 °F 53% 29.89 in - ENE 4.5 mph - N/A   Clear
7:00 AM 71.6 °F 53.6 °F 53% 29.89 in - Calm Calm - N/A   Clear
7:30 AM 75.2 °F 51.8 °F 44% 29.89 in - NE 2.2 mph - N/A   Clear
8:00 AM 77.0 °F 51.8 °F 41% 29.89 in - Calm Calm - N/A   Clear
8:30 AM 80.6 °F 48.2 °F 32% 29.89 in - East 4.5 mph - N/A   Clear
9:00 AM 82.4 °F 48.2 °F 30% 29.89 in - East 4.5 mph - N/A   Clear
9:30 AM 84.2 °F 46.4 °F 27% 29.89 in - Variable 4.5 mph - N/A   Clear
10:00 AM 86.0 °F 44.6 °F 23% 29.89 in - East 6.7 mph - N/A   Clear
10:30 AM 86.0 °F 46.4 °F 25% 29.89 in - SE 6.7 mph - N/A   Clear
11:00 AM 86.0 °F 46.4 °F 25% 29.89 in - NNE 4.5 mph - N/A   Clear
11:30 AM 87.8 °F 46.4 °F 24% 29.86 in - Variable 4.5 mph - N/A   Clear
12:00 PM 87.8 °F 44.6 °F 22% 29.86 in - SE 6.7 mph - N/A   Clear
12:30 PM 87.8 °F 46.4 °F 24% 29.86 in - Variable 4.5 mph - N/A   Clear
1:00 PM 89.6 °F 46.4 °F 22% 29.86 in - Variable 4.5 mph - N/A   Clear
1:30 PM 89.6 °F 46.4 °F 22% 29.86 in 6.2 mi SSE 6.7 mph - N/A   Scattered Clouds
2:00 PM 91.4 °F 44.6 °F 20% 29.86 in 6.2 mi Variable 4.5 mph - N/A   Scattered Clouds
2:30 PM 91.4 °F 46.4 °F 21% 29.83 in 6.2 mi North 4.5 mph - N/A   Scattered Clouds
3:00 PM 89.6 °F 44.6 °F 21% 29.83 in 6.2 mi East 6.7 mph - N/A   Scattered Clouds
3:30 PM 89.6 °F 46.4 °F 22% 29.83 in 6.2 mi Calm Calm - N/A   Scattered Clouds
4:00 PM 91.4 °F 50.0 °F 24% 29.83 in 6.2 mi Variable 4.5 mph - N/A   Scattered Clouds
4:30 PM 91.4 °F 50.0 °F 24% 29.83 in 6.2 mi Variable 4.5 mph - N/A   Scattered Clouds
5:00 PM 91.4 °F 50.0 °F 24% 29.83 in 6.2 mi East 4.5 mph - N/A   Scattered Clouds
5:30 PM 87.8 °F 44.6 °F 22% 29.83 in 6.2 mi East 4.5 mph - N/A   Scattered Clouds
6:00 PM 87.8 °F 46.4 °F 24% 29.83 in 6.2 mi ENE 4.5 mph - N/A   Scattered Clouds
6:30 PM 87.8 °F 44.6 °F 22% 29.83 in 6.2 mi ENE 6.7 mph - N/A   Scattered Clouds
7:00 PM 86.0 °F 46.4 °F 25% 29.83 in 6.2 mi ENE 4.5 mph - N/A   Scattered Clouds
7:30 PM 82.4 °F 46.4 °F 28% 29.83 in 6.2 mi ENE 4.5 mph - N/A   Scattered Clouds
8:00 PM 82.4 °F 46.4 °F 28% 29.83 in 6.2 mi ENE 6.7 mph - N/A   Scattered Clouds
8:30 PM 80.6 °F 46.4 °F 30% 29.83 in 6.2 mi ENE 4.5 mph - N/A   Scattered Clouds
9:00 PM 80.6 °F 48.2 °F 32% 29.83 in 6.2 mi East 4.5 mph - N/A   Scattered Clouds
9:30 PM 78.8 °F 48.2 °F 34% 29.86 in 6.2 mi West 6.7 mph - N/A   Scattered Clouds
10:00 PM 77.0 °F 51.8 °F 41% 29.86 in 6.2 mi West 6.7 mph - N/A   Scattered Clouds
10:07 PM 77.0 °F 51.8 °F 41% 29.86 in 6.2 mi WNW 6.7 mph - N/A Thunderstorm Scattered Clouds
10:30 PM 77.0 °F 53.6 °F 44% 29.86 in 6.2 mi West 6.7 mph - N/A Thunderstorm Scattered Clouds
11:00 PM 77.0 °F 53.6 °F 44% 29.86 in 6.2 mi West 8.9 mph - N/A Thunderstorm Scattered Clouds
11:30 PM 75.2 °F 55.4 °F 50% 29.86 in 6.2 mi WNW 13.4 mph - N/A Thunderstorm Mostly Cloudy